Showing default

GAOFEN 1-02, 43259

Orbit data source: Space-Track

GAOFEN 1-02, 43259 is a payload satellite owned by GGKGJ (CN) in SSO that was launched on Sat, 31 Mar 2018 UTC via a CHANG ZHENG 4C launch vehicle from the Taiyaun Space Center, China (TSC). Payload-class satellites include a variety of spacecraft equipped with specific instruments for various scientific and technological missions. These include communications satellites like Starlink; space stations such as the ISS; scientific satellites like the Hubble; Earth observation satellites from companies like Planet Labs, Umbra, and HawkEye 360; GPS; miniature CubeSats for education and research; and military/defense satellites.

Loading next visibility...
Identifier
43259, 2018-031A
Orbit
SSO
Last TLE update
3 hours ago
Origin
Manufacturer
DFH
Mission
Operational Civil Imaging
Bus & Motor
CAST-2000, AOCS
Mass
805 kg wet, ~700 kg dry
Launch date (UTC)
2018-03-31 (7 years ago)
Launch vehicle
CHANG ZHENG 4C
Launch site
Taiyaun Space Center, China (TSC)
Object type
Payload
Rocket body
Debris
Shape & HBR
Box + 2 Pan, 4 m
Radar Cross Section
4.991 m², Large (>1 m²)

Expand to show TLE details & history

TLE from 3 hours ago
0 GAOFEN 1-02
1 43259U 18031A   25192.21286922  .00000497  00000-0  78186-4 0  9991
2 43259  97.7711 252.3455 0005946  30.7784 329.3774 14.76594877392384
Epoch: 2025-07-11T05:06Z
TLE epoch observation values (Epoch: 2025-07-11T05:06:31.9Z)
Latitude
-0.00004°
Longitude
-113.65544°
Altitude
639.523 km
Speed
7.54 km/s
True Right ascension
16h 49m 22s
True Declination
0° 00' 00"
Sunlit
Object was in full shadow at epoch
Visualization orbit readout
Latitude
26.7806°
Longitude
-117.44822°
Altitude
639.277 km
Speed
7.543 km/s
Apparent Right ascension
13h 25m 34s
Apparent Declination
-8° 50' 18"
Sunlit
Object is in full shadow
Visualization observer readout
Local Sidereal Time
20:46:31
Azimuth
276.246° WNW
Elevation
-21.146°
Doppler factor
1
Orbital elements
Apogee altitude
641.304 km
Perigee altitude
632.962 km
Semi-major axis
7,015.27 km
Eccentricity
0.00059
Inclination
97.7711°
RAAN
252.3455°
Arg. of periapsis
30.7784°
True anomaly
Unknown
Mean anomaly
329.3774°
Eccentric anomaly
Unknown
Mean motion
3.69383 °/min
Orbital period
97.46 mins
BSTAR
0.000078186
Loading maneuver chart data...
Loading SW <> Apogee altitude chart data...
Loading historical data...
Loading historical data...
Loading historical data...
Loading historical data...
Loading historical data...
Loading historical data...
Loading historical data...

GAOFEN 1-02 Visibility forecast

Observer location: undefined°, undefined°

Span
Click to sort rows by Start time (UTC) header in descending order
Start Az.
Max El. time (UTC)
Max El. Az.
Max El.
End time (UTC)
End Az.
8 mins2025-07-11 17:02:58.443Z7.95° NNE2025-07-11 17:06:58.443Z319.111° NNW43.004°2025-07-11 17:10:58.443Z201.712° SSW
6 mins2025-07-12 04:00:58.443Z163.373° S2025-07-12 04:03:58.443Z5.164° NNE43.835°2025-07-12 04:06:58.443Z349.28° N
|